Location: Lake Runnemede Observatory
(43.4843°N, 72.3851°W)
Time: 16:42:34
(UTC-05:00)

Amateur Radio Satellites - All Passes

Search period start: 07 February 2016 16:12
Search period end: 08 February 2016 16:12
Location: Lake Runnemede Observatory, 43.4843°N, 72.3851°W

Satellite Date Start Highest point End Downlink Frequencies (MHz)
Time Altitude Azimuth
MOZHAYETS 4 07 Feb 16:18:21 16:22:59 72° 285° (WNW) 16:27:36
AO-7 07 Feb 16:22:04 16:28:25 24° 268° (W) 16:34:49 29.400- 29.500
ISS 07 Feb 16:29:12 16:32:20 46° 141° (SE) 16:35:27 145.825
Cosmos 2504 07 Feb 16:34:42 16:43:24 73° 266° (W) 16:51:30 435.465 / 435.565
STARS 07 Feb 16:35:28 16:39:25 33° 291° (WNW) 16:43:20 437.465
KKS-1 07 Feb 16:46:10 16:48:58 17° 298° (WNW) 16:51:44 437.445
CUBESAT XI-V 07 Feb 16:51:53 16:55:57 28° 95° (E) 16:59:58 437.345
LilacSat-2 07 Feb 16:56:35 17:00:13 42° 72° (ENE) 17:03:50 437.200
DOVE 4 07 Feb 17:02:07 17:02:47 10° 59° (ENE) 17:03:26 437.250
GOMX 1 07 Feb 17:03:41 17:07:42 22° 64° (ENE) 17:11:36 467.674
BEESAT 3 07 Feb 17:11:00 17:14:40 36° 117° (ESE) 17:18:21 437.485
CUTE-I 07 Feb 17:16:21 17:21:41 88° 74° (ENE) 17:27:04 437.470
Cosmos 2491 07 Feb 17:16:47 17:23:19 23° 298° (WNW) 17:29:54 435.465 / 435.565
BRITE-PL 07 Feb 17:20:14 17:25:46 54° 72° (ENE) 17:31:12 437.365/2234.400
O/OREOS (USA 219) 07 Feb 17:28:03 17:32:28 44° 62° (ENE) 17:36:51 437.305
Cubesat XI-IV 07 Feb 17:29:16 17:34:34 72° 257° (WSW) 17:39:56 437.490
BEESAT 2 07 Feb 17:30:19 17:34:02 38° 117° (ESE) 17:37:47 435.950
RS-15 07 Feb 17:39:03 17:49:05 30° 18° (NNE) 17:59:23 29.354- 29.394
HO-68 07 Feb 17:39:32 17:44:55 24° 56° (NE) 17:50:19 435.675
PCSat 07 Feb 17:55:15 17:57:04 12° 31° (NNE) 17:58:53 145.827
AO-85 07 Feb 17:57:49 18:01:48 21° 37° (NE) 18:05:34 145.980
STRAND 1 07 Feb 18:05:25 18:09:19 21° 93° (E) 18:13:10 437.568
ISS 07 Feb 18:05:54 18:08:52 31° 340° (NNW) 18:11:50 145.825
CINEMA 3 07 Feb 18:13:30 18:16:26 17° 64° (ENE) 18:19:18 145.822/145.860
CANX-2 07 Feb 18:22:36 18:25:59 24° 67° (ENE) 18:29:24 2200.000
CUBESAT XI-V 07 Feb 18:29:09 18:33:19 32° 292° (WNW) 18:37:29 437.345
Cosmos 2504 07 Feb 18:31:03 18:35:02 14° 287° (WNW) 18:38:56 435.465 / 435.565
LilacSat-2 07 Feb 18:32:39 18:34:45 14° 269° (W) 18:36:51 437.200
DOVE 4 07 Feb 18:34:33 18:39:42 74° 75° (ENE) 18:44:37 437.250
GOMX 1 07 Feb 18:40:02 18:45:24 57° 260° (W) 18:50:35 467.674
GONETS M04 07 Feb 18:40:11 18:47:31 28° 66° (ENE) 18:54:49
CUBEBUG 2 07 Feb 18:40:12 18:41:14 11° 61° (ENE) 18:42:17 437.445
BEESAT 3 07 Feb 18:49:12 18:52:31 25° 315° (NW) 18:55:51 437.485
Oscar 11 07 Feb 18:57:36 18:58:50 11° 60° (ENE) 19:00:05 145.826/435.025
BRITE-PL 07 Feb 19:00:00 19:04:28 24° 268° (W) 19:08:56 437.365/2234.400
CUTE-I 07 Feb 19:00:31 19:02:27 12° 272° (W) 19:04:23 437.470
AIST 2 07 Feb 19:04:53 19:08:48 40° 117° (ESE) 19:12:43 435.215
O/OREOS (USA 219) 07 Feb 19:08:14 19:11:32 20° 259° (W) 19:14:50 437.305
BEESAT 2 07 Feb 19:08:43 19:12:03 24° 315° (NW) 19:15:23 435.950
CUTE 1.7 + AOD 2 07 Feb 19:12:45 19:16:56 75° 75° (ENE) 19:21:10 437.475
COMPASS 1 07 Feb 19:14:31 19:18:26 43° 72° (ENE) 19:22:24 437.405
SEEDS 07 Feb 19:23:45 19:27:54 75° 74° (ENE) 19:32:06 437.485
HO-68 07 Feb 19:24:44 19:31:54 78° 255° (WSW) 19:39:09 435.675
PRISM 07 Feb 19:36:21 19:40:27 51° 100° (E) 19:44:30 437.425
PCSat 07 Feb 19:36:37 19:41:53 48° 53° (NE) 19:47:06 145.827
AO-85 07 Feb 19:37:47 19:43:00 79° 238° (WSW) 19:47:45 145.980
ISS 07 Feb 19:43:37 19:46:01 19° 360° (N) 19:48:25 145.825
ZACube-1 07 Feb 19:43:46 19:47:13 25° 68° (ENE) 19:50:38 437.345
STRAND 1 07 Feb 19:43:46 19:48:45 50° 290° (WNW) 19:53:43 437.568
AAUSAT CUBESAT 2 07 Feb 19:45:28 19:49:35 79° 76° (ENE) 19:53:45 437.432
DELFI C3 07 Feb 19:46:03 19:48:47 18° 65° (ENE) 19:51:31 145.870
CINEMA 3 07 Feb 19:48:37 19:53:13 55° 260° (W) 19:57:38 145.822/145.860
Cosmos 2499 07 Feb 19:50:41 19:58:12 33° 67° (ENE) 20:05:12 435.465 / 435.565
RS-15 07 Feb 19:52:32 20:04:35 64° 48° (NE) 20:16:49 29.354- 29.394
FUNcube-1 07 Feb 19:53:55 19:57:36 30° 69° (ENE) 20:01:15 145.935
CANX-2 07 Feb 19:58:00 20:01:43 30° 264° (W) 20:05:29 2200.000
CUBEBUG 2 07 Feb 20:12:55 20:17:17 81° 256° (WSW) 20:21:33 437.445
DOVE 4 07 Feb 20:15:16 20:17:50 14° 270° (W) 20:20:21 437.250
UWE-3 07 Feb 20:19:07 20:23:26 86° 74° (ENE) 20:27:39 435.000/436.395/437.385
HUMSAT D 07 Feb 20:24:48 20:27:52 21° 66° (ENE) 20:30:55 437.325/437.525
Oscar 11 07 Feb 20:30:01 20:34:19 80° 259° (WSW) 20:38:39 145.826/435.025
GONETS M04 07 Feb 20:36:22 20:45:04 69° 267° (W) 20:53:48
AIST 2 07 Feb 20:43:58 20:47:26 25° 316° (NW) 20:50:54 435.215
COMPASS 1 07 Feb 20:51:34 20:54:14 17° 268° (W) 20:56:56 437.405
PRISM 07 Feb 21:12:51 21:15:23 16° 297° (WNW) 21:17:53 437.425
HO-68 07 Feb 21:17:28 21:20:44 13° 273° (W) 21:24:02 435.675
UNISAT 6 07 Feb 21:19:18 21:22:08 17° 92° (E) 21:25:00 437.425
ZACube-1 07 Feb 21:19:43 21:23:25 29° 264° (W) 21:27:06 437.345
DELFI C3 07 Feb 21:19:43 21:23:25 38° 262° (W) 21:27:11 145.870
ISS 07 Feb 21:20:14 21:23:10 30° 20° (NNE) 21:26:07 145.825
PCSat 07 Feb 21:20:31 21:25:00 27° 252° (WSW) 21:29:28 145.827
VELOX 1 07 Feb 21:24:05 21:27:25 21° 65° (ENE) 21:30:46 145.980
AIST 1 07 Feb 21:27:15 21:31:33 54° 79° (E) 21:35:47
FUNcube-1 07 Feb 21:30:27 21:33:52 24° 265° (W) 21:37:17 145.935
AISAT 07 Feb 21:39:35 21:43:30 31° 68° (ENE) 21:47:27 437.250
Cosmos 2499 07 Feb 21:43:32 21:51:48 57° 270° (W) 21:59:26 435.465 / 435.565
ESTCUBE 1 07 Feb 21:51:12 21:55:28 42° 70° (ENE) 21:59:45 437.505/2401.250
HUMSAT D 07 Feb 21:59:36 22:03:19 34° 263° (W) 22:07:03 437.325/437.525
50 SAT 07 Feb 22:01:31 22:05:07 55° 74° (ENE) 22:08:47 437.505
POLYITAN 1 07 Feb 22:02:47 22:04:14 12° 90° (E) 22:05:42 437.675
QB50P2 07 Feb 22:03:20 22:05:04 12° 90° (E) 22:06:46 145.880/145.840
ANTELSAT 07 Feb 22:03:21 22:07:33 49° 100° (E) 22:11:49 437.575/2403.000
RS-15 07 Feb 22:05:33 22:16:41 44° 251° (WSW) 22:27:56 29.354- 29.394
UKube-1 07 Feb 22:05:46 22:09:57 50° 72° (ENE) 22:14:11 .
CUBEBUG 1 07 Feb 22:06:07 22:10:20 45° 71° (ENE) 22:14:35 437.445
TIGRISAT 07 Feb 22:11:04 22:15:19 57° 101° (E) 22:19:38 435.000
DX 1 07 Feb 22:13:13 22:17:34 72° 75° (ENE) 22:21:58 434.975-435.025
SPROUT 07 Feb 22:20:11 22:23:35 23° 66° (ENE) 22:26:59 437.525
POPSAT HIP 1 07 Feb 22:32:19 22:35:45 24° 95° (E) 22:39:10 437.405
GONETS M04 07 Feb 22:36:39 22:40:08 13° 288° (WNW) 22:43:37
NANOSAT C BR1 07 Feb 22:38:27 22:42:04 27° 96° (E) 22:45:39 145.865
TISAT 1 07 Feb 22:39:42 22:42:07 15° 63° (ENE) 22:44:30 437.305
DUCHIFAT 1 07 Feb 22:40:59 22:44:36 28° 96° (E) 22:48:12 145.980
QB50P1 07 Feb 22:44:55 22:48:45 33° 97° (E) 22:52:33 145.935-145.965
UNISAT 6 07 Feb 22:54:58 22:59:05 46° 288° (WNW) 23:03:16 437.425
ISS 07 Feb 22:56:35 22:59:45 49° 218° (SW) 23:02:54 145.825
VELOX 1 07 Feb 22:59:24 23:03:38 41° 261° (W) 23:07:53 145.980
AIST 1 07 Feb 23:06:31 23:08:38 13° 276° (W) 23:10:45
AISAT 07 Feb 23:16:11 23:19:59 27° 264° (W) 23:23:49 437.250
ESTCUBE 1 07 Feb 23:29:08 23:32:27 20° 267° (W) 23:35:48 437.505/2401.250
POLYITAN 1 07 Feb 23:36:19 23:40:29 64° 286° (WNW) 23:44:38 437.675
QB50P2 07 Feb 23:37:06 23:41:16 60° 287° (WNW) 23:45:25 145.880/145.840
50 SAT 07 Feb 23:39:01 23:39:32 10° 270° (W) 23:40:02 437.505
ANTELSAT 07 Feb 23:41:08 23:43:56 17° 296° (WNW) 23:46:44 437.575/2403.000
ITUPSAT 1 07 Feb 23:42:28 23:45:08 15° 60° (ENE) 23:47:48 437.325
UKube-1 07 Feb 23:43:41 23:46:18 16° 268° (W) 23:48:57 .
CUBEBUG 1 07 Feb 23:43:47 23:46:51 18° 268° (W) 23:49:56 437.445
TIGRISAT 07 Feb 23:49:10 23:51:36 15° 297° (WNW) 23:54:02 435.000
Oscar 19 07 Feb 23:51:48 23:52:10 10° 87° (E) 23:52:30 437.125/150
BEESAT 07 Feb 23:51:50 23:55:05 19° 62° (ENE) 23:58:20 436.000
BUGSAT 1 07 Feb 23:52:39 23:56:44 86° 285° (WNW) 00:00:44 437.445
DX 1 07 Feb 23:52:57 23:54:15 11° 271° (W) 23:55:34 434.975-435.025
SPROUT 07 Feb 23:55:28 23:59:23 34° 263° (W) 00:03:20 437.525
POPSAT HIP 1 08 Feb 00:07:53 00:11:34 30° 291° (WNW) 00:15:14 437.405
TISAT 1 08 Feb 00:13:11 00:17:21 55° 260° (W) 00:21:31 437.305
NANOSAT C BR1 08 Feb 00:14:14 00:17:45 27° 292° (WNW) 00:21:16 145.865
DUCHIFAT 1 08 Feb 00:16:44 00:20:14 26° 293° (WNW) 00:23:43 145.980
QB50P1 08 Feb 00:21:05 00:24:23 22° 294° (WNW) 00:27:38 145.935-145.965
SWISSCUBE 08 Feb 00:42:07 00:46:47 59° 72° (ENE) 00:51:30 437.505
CUSAT 1 08 Feb 00:48:33 00:55:30 36° 87° (E) 01:02:37 437.405
DANDE 08 Feb 01:03:05 01:09:17 28° 83° (E) 01:16:02 436.750
ITUPSAT 1 08 Feb 01:17:39 01:22:24 70° 258° (WSW) 01:27:12 437.325
Cosmos 2491 08 Feb 01:25:42 01:33:59 44° 73° (ENE) 01:42:13 435.465 / 435.565
Oscar 19 08 Feb 01:27:04 01:32:15 85° 106° (ESE) 01:37:22 437.125/150
BEESAT 3 08 Feb 01:27:27 01:31:05 33° 48° (NE) 01:34:40 437.485
BEESAT 08 Feb 01:27:48 01:32:28 54° 260° (W) 01:37:09 436.000
PHONESAT 2.4 08 Feb 01:29:29 01:31:53 19° 155° (SSE) 01:34:16 2401.200-2431.200
JAS-2 08 Feb 01:33:11 01:38:59 64° 101° (E) 01:44:14 435.910
Gurwin Techsat 1B 08 Feb 01:39:38 01:44:42 43° 98° (E) 01:49:44 435.225
MOZHAYETS 4 08 Feb 01:46:36 01:49:02 14° 61° (ENE) 01:51:30
BEESAT 2 08 Feb 01:47:29 01:51:11 34° 48° (NE) 01:54:51 435.950
STARS 08 Feb 01:57:18 02:00:55 25° 66° (ENE) 02:04:31 437.465
KKS-1 08 Feb 02:07:22 02:11:45 57° 72° (ENE) 02:16:08 437.445
YUBILEINY 08 Feb 02:18:15 02:26:00 37° 85° (E) 02:33:49 435.215
SWISSCUBE 08 Feb 02:22:08 02:24:59 16° 269° (W) 02:27:51 437.505
AO-7 08 Feb 02:27:55 02:34:15 23° 92° (E) 02:40:30 29.400- 29.500
CUSAT 1 08 Feb 02:29:44 02:37:29 57° 286° (WNW) 02:45:25 437.405
ITAMSAT 1 08 Feb 02:30:47 02:36:01 66° 102° (ESE) 02:41:13 435.822/435.867
DANDE 08 Feb 02:43:54 02:51:29 71° 283° (WNW) 03:00:01 436.750
BEESAT 3 08 Feb 03:05:28 03:08:43 24° 246° (WSW) 03:11:56 437.485
PHONESAT 2.4 08 Feb 03:05:35 03:08:44 44° 172° (S) 03:11:53 2401.200-2431.200
Oscar 19 08 Feb 03:08:17 03:10:51 14° 302° (WNW) 03:13:24 437.125/150
JAS-2 08 Feb 03:19:24 03:23:25 19° 302° (WNW) 03:27:11 435.910
Gurwin Techsat 1B 08 Feb 03:20:01 03:24:26 27° 296° (WNW) 03:28:49 435.225
MOZHAYETS 4 08 Feb 03:21:08 03:25:40 67° 258° (WSW) 03:30:14
Cosmos 2491 08 Feb 03:22:43 03:30:47 44° 273° (W) 03:38:51 435.465 / 435.565
Cosmos 2504 08 Feb 03:23:04 03:28:52 20° 77° (ENE) 03:34:48 435.465 / 435.565
AIST 2 08 Feb 03:25:08 03:29:02 39° 49° (NE) 03:32:54 435.215
HORYU 2 08 Feb 03:25:09 03:28:23 19° 93° (E) 03:31:36 437.375
BEESAT 2 08 Feb 03:25:43 03:28:56 23° 246° (WSW) 03:32:07 435.950
STARS 08 Feb 03:33:11 03:37:09 32° 263° (W) 03:41:08 437.465
KKS-1 08 Feb 03:46:12 03:48:41 15° 269° (W) 03:51:10 437.445
CUBESAT XI-V 08 Feb 03:56:14 04:00:21 31° 68° (ENE) 04:04:30 437.345
ITAMSAT 1 08 Feb 04:11:30 04:14:58 18° 300° (WNW) 04:18:26 435.822/435.867
YUBILEINY 08 Feb 04:14:02 04:22:30 52° 285° (WNW) 04:31:05 435.215
CUSAT 1 08 Feb 04:17:54 04:21:32 13° 306° (NW) 04:25:11 437.405
AO-7 08 Feb 04:19:29 04:27:50 79° 291° (WNW) 04:36:07 29.400- 29.500
M-CUBED/EXP-1 PRIME 08 Feb 04:26:48 04:30:07 70° 290° (WNW) 04:33:36 437.505
DANDE 08 Feb 04:31:01 04:36:07 18° 305° (NW) 04:41:27 436.750
AUBIESAT-1 08 Feb 04:38:33 04:41:54 61° 291° (WNW) 04:45:24 437.475
PHONESAT 2.4 08 Feb 04:42:39 04:45:48 44° 188° (S) 04:48:55 2401.200-2431.200
SO-50 08 Feb 04:52:40 04:57:18 44° 117° (ESE) 05:02:01 436.795
HORYU 2 08 Feb 05:00:56 05:05:08 42° 290° (WNW) 05:09:19 437.375
AIST 2 08 Feb 05:04:06 05:07:19 22° 247° (WSW) 05:10:31 435.215
Cosmos 2504 08 Feb 05:12:26 05:20:59 88° 277° (W) 05:29:58 435.465 / 435.565
STRAND 1 08 Feb 05:22:12 05:26:47 34° 67° (ENE) 05:31:23 437.568
BRITE-PL 08 Feb 05:26:24 05:28:49 14° 87° (E) 05:31:09 437.365/2234.400
CUTE-I 08 Feb 05:32:32 05:37:21 32° 96° (E) 05:42:07 437.470
CUBESAT XI-V 08 Feb 05:33:39 05:37:42 29° 265° (W) 05:41:49 437.345
Cubesat XI-IV 08 Feb 05:45:23 05:50:30 42° 98° (E) 05:55:34 437.490
LilacSat-2 08 Feb 06:02:58 06:06:42 55° 101° (E) 06:10:24 437.200
AO-7 08 Feb 06:13:45 06:19:22 20° 312° (NW) 06:24:57 29.400- 29.500
PHONESAT 2.4 08 Feb 06:20:17 06:22:39 19° 205° (SSW) 06:25:01 2401.200-2431.200
YUBILEINY 08 Feb 06:20:25 06:21:53 10° 310° (NW) 06:23:22 435.215
PRISM 08 Feb 06:26:53 06:30:48 43° 71° (ENE) 06:34:47 437.425
SO-50 08 Feb 06:33:38 06:37:58 30° 316° (NW) 06:42:20 436.795
DOVE 4 08 Feb 06:34:04 06:36:40 16° 90° (E) 06:39:12 437.250
GOMX 1 08 Feb 06:41:31 06:45:44 38° 96° (E) 06:49:43 467.674
HO-68 08 Feb 06:52:30 06:57:26 19° 90° (E) 07:02:19 435.675
CUTE 1.7 + AOD 2 08 Feb 06:58:31 07:00:13 12° 89° (E) 07:01:55 437.475
STRAND 1 08 Feb 07:01:28 07:05:57 31° 264° (W) 07:10:29 437.568
BRITE-PL 08 Feb 07:03:04 07:07:55 63° 287° (WNW) 07:12:21 437.365/2234.400
SEEDS 08 Feb 07:08:41 07:10:11 12° 89° (E) 07:11:42 437.485
Cosmos 2504 08 Feb 07:09:31 07:15:44 21° 300° (WNW) 07:22:08 435.465 / 435.565
CUTE-I 08 Feb 07:12:31 07:17:23 36° 293° (WNW) 07:22:14 437.470
Cubesat XI-IV 08 Feb 07:25:51 07:30:22 28° 296° (WNW) 07:34:53 437.490
AAUSAT CUBESAT 2 08 Feb 07:28:52 07:30:21 12° 89° (E) 07:31:50 437.432
LilacSat-2 08 Feb 07:39:06 07:40:34 12° 297° (WNW) 07:42:01 437.200
CANX-2 08 Feb 07:41:20 07:45:23 40° 98° (E) 07:49:26 2200.000
O/OREOS (USA 219) 08 Feb 07:41:33 07:45:43 40° 107° (ESE) 07:49:57 437.305
CINEMA 3 08 Feb 07:42:27 07:46:04 28° 96° (E) 07:49:41 145.822/145.860
GONETS M04 08 Feb 07:43:43 07:50:50 30° 82° (E) 07:57:59
CUBEBUG 2 08 Feb 08:03:23 08:06:16 18° 93° (E) 08:09:10 437.445
PRISM 08 Feb 08:03:38 08:06:22 17° 268° (W) 08:09:07 437.425
UWE-3 08 Feb 08:08:45 08:11:11 15° 91° (E) 08:13:37 435.000/436.395/437.385
DOVE 4 08 Feb 08:10:35 08:14:42 45° 288° (WNW) 08:18:40 437.250
Oscar 11 08 Feb 08:17:04 08:19:58 17° 92° (E) 08:22:52 145.826/435.025
UNISAT 6 08 Feb 08:19:43 08:22:39 18° 64° (ENE) 08:25:34 437.425
GOMX 1 08 Feb 08:20:11 08:23:35 21° 296° (WNW) 08:26:49 467.674
Cosmos 2499 08 Feb 08:28:49 08:35:34 26° 80° (E) 08:42:25 435.465 / 435.565
COMPASS 1 08 Feb 08:31:28 08:35:42 72° 102° (ESE) 08:39:54 437.405
CUTE 1.7 + AOD 2 08 Feb 08:32:14 08:36:29 63° 285° (WNW) 08:40:43 437.475
HO-68 08 Feb 08:38:41 08:45:55 82° 289° (WNW) 08:53:07 435.675
SEEDS 08 Feb 08:42:06 08:46:20 65° 285° (WNW) 08:50:33 437.485
DELFI C3 08 Feb 08:56:45 09:00:04 24° 95° (E) 09:03:23 145.870
POLYITAN 1 08 Feb 08:57:19 08:58:46 12° 61° (ENE) 09:00:13 437.675
QB50P2 08 Feb 08:57:49 08:59:30 12° 61° (ENE) 09:01:10 145.880/145.840
AAUSAT CUBESAT 2 08 Feb 09:02:06 09:06:16 64° 286° (WNW) 09:10:26 437.432
ANTELSAT 08 Feb 09:03:19 09:07:29 49° 72° (ENE) 09:11:38 437.575/2403.000
ZACube-1 08 Feb 09:06:05 09:10:07 44° 99° (E) 09:14:11 437.345
TIGRISAT 08 Feb 09:10:48 09:15:03 57° 73° (ENE) 09:19:15 435.000
FUNcube-1 08 Feb 09:16:07 09:20:15 54° 100° (E) 09:24:25 145.935
CANX-2 08 Feb 09:17:51 09:20:59 20° 294° (WNW) 09:24:06 2200.000
CINEMA 3 08 Feb 09:19:46 09:23:09 24° 293° (WNW) 09:26:31 145.822/145.860
O/OREOS (USA 219) 08 Feb 09:21:43 09:25:17 23° 305° (NW) 09:28:54 437.305
POPSAT HIP 1 08 Feb 09:26:13 09:29:31 22° 66° (ENE) 09:32:48 437.405
NANOSAT C BR1 08 Feb 09:31:57 09:35:24 25° 67° (ENE) 09:38:51 145.865
DUCHIFAT 1 08 Feb 09:34:14 09:37:42 25° 67° (ENE) 09:41:09 145.980
GONETS M04 08 Feb 09:38:28 09:47:01 62° 282° (WNW) 09:55:41
QB50P1 08 Feb 09:38:34 09:42:16 30° 69° (ENE) 09:45:58 145.935-145.965
CUBEBUG 2 08 Feb 09:39:10 09:43:04 40° 289° (WNW) 09:47:01 437.445
HUMSAT D 08 Feb 09:41:35 09:45:20 32° 97° (E) 09:49:06 437.325/437.525
UWE-3 08 Feb 09:43:53 09:47:55 48° 287° (WNW) 09:52:01 435.000/436.395/437.385
Oscar 11 08 Feb 09:52:10 09:56:20 45° 288° (WNW) 10:00:28 145.826/435.025
AO-85 08 Feb 09:52:47 09:57:25 31° 113° (ESE) 10:02:12 145.980
UNISAT 6 08 Feb 09:54:54 09:59:04 44° 261° (W) 10:03:11 437.425
AIST 1 08 Feb 09:57:53 10:01:43 30° 90° (E) 10:05:36
DX 1 08 Feb 10:02:46 10:04:01 11° 89° (E) 10:05:15 434.975-435.025
COMPASS 1 08 Feb 10:09:06 10:10:42 12° 299° (WNW) 10:12:17 437.405
Cosmos 2499 08 Feb 10:19:07 10:27:48 74° 280° (W) 10:36:45 435.465 / 435.565
RS-15 08 Feb 10:19:25 10:28:38 32° 104° (ESE) 10:38:12 29.354- 29.394
PCSat 08 Feb 10:19:46 10:24:34 33° 110° (ESE) 10:29:22 145.827
HO-68 08 Feb 10:28:02 10:32:35 18° 308° (NW) 10:37:07 435.675
POLYITAN 1 08 Feb 10:29:46 10:34:00 75° 257° (WSW) 10:38:15 437.675
QB50P2 08 Feb 10:30:31 10:34:45 71° 258° (WSW) 10:39:00 145.880/145.840
DELFI C3 08 Feb 10:31:30 10:34:58 28° 291° (WNW) 10:38:27 145.870
ANTELSAT 08 Feb 10:41:56 10:44:29 15° 268° (W) 10:47:03 437.575/2403.000
BUGSAT 1 08 Feb 10:43:04 10:47:16 75° 75° (ENE) 10:51:27 437.445
ZACube-1 08 Feb 10:43:18 10:46:06 18° 295° (WNW) 10:48:56 437.345
VELOX 1 08 Feb 10:48:24 10:52:25 32° 97° (E) 10:56:22 145.980
TIGRISAT 08 Feb 10:49:59 10:52:06 13° 269° (W) 10:54:13 435.000
FUNcube-1 08 Feb 10:53:45 10:56:05 15° 297° (WNW) 10:58:26 145.935
POPSAT HIP 1 08 Feb 11:01:15 11:05:07 34° 263° (W) 11:09:01 437.405
AISAT 08 Feb 11:04:31 11:08:51 51° 100° (E) 11:13:07 437.250
50 SAT 08 Feb 11:05:43 11:09:30 66° 102° (ESE) 11:13:17 437.505
NANOSAT C BR1 08 Feb 11:07:17 11:11:02 30° 264° (W) 11:14:48 145.865
Oscar 19 08 Feb 11:07:44 11:11:21 20° 61° (ENE) 11:14:58 437.125/150
DUCHIFAT 1 08 Feb 11:09:35 11:13:18 30° 263° (W) 11:17:02 145.980
QB50P1 08 Feb 11:14:33 11:18:03 25° 265° (W) 11:21:34 145.935-145.965
HUMSAT D 08 Feb 11:17:34 11:20:51 23° 293° (WNW) 11:24:08 437.325/437.525
ESTCUBE 1 08 Feb 11:18:54 11:23:29 80° 102° (ESE) 11:28:01 437.505/2401.250
CUSAT 1 08 Feb 11:25:39 11:30:20 21° 60° (ENE) 11:34:14 437.405
Gurwin Techsat 1B 08 Feb 11:26:20 11:28:02 12° 56° (NE) 11:29:44 435.225
UKube-1 08 Feb 11:27:34 11:31:55 79° 102° (ESE) 11:36:13 .
CUBEBUG 1 08 Feb 11:29:34 11:33:58 78° 102° (ESE) 11:38:18 437.445
AO-85 08 Feb 11:32:37 11:37:48 46° 311° (NW) 11:43:07 145.980
AIST 1 08 Feb 11:35:44 11:39:21 24° 288° (WNW) 11:42:58
DX 1 08 Feb 11:36:21 11:40:42 71° 285° (WNW) 11:45:01 434.975-435.025
SPROUT 08 Feb 11:40:11 11:44:09 36° 98° (E) 11:48:03 437.525
GONETS M04 08 Feb 11:42:15 11:45:59 13° 307° (NW) 11:49:44
DANDE 08 Feb 11:43:01 11:48:31 22° 58° (ENE) 11:53:12 436.750
SO-50 08 Feb 11:44:01 11:46:12 13° 29° (NNE) 11:48:22 436.795
JAS-2 08 Feb 11:44:44 11:51:38 39° 66° (ENE) 11:58:01 435.910
TISAT 1 08 Feb 11:56:46 11:59:53 20° 93° (E) 12:02:58 437.305
PCSat 08 Feb 12:02:47 12:07:51 40° 309° (NW) 12:12:59 145.827
ITAMSAT 1 08 Feb 12:13:09 12:16:17 16° 59° (ENE) 12:19:26 435.822/435.867
Cosmos 2499 08 Feb 12:17:13 12:22:38 17° 303° (WNW) 12:28:08 435.465 / 435.565
VELOX 1 08 Feb 12:25:07 12:28:45 25° 294° (WNW) 12:32:21 145.980
YUBILEINY 08 Feb 12:26:54 12:32:59 20° 60° (ENE) 12:39:00 435.215
RS-15 08 Feb 12:28:41 12:39:52 77° 307° (NW) 12:51:45 29.354- 29.394
AISAT 08 Feb 12:42:05 12:44:57 17° 297° (WNW) 12:47:49 437.250
50 SAT 08 Feb 12:42:14 12:43:00 11° 298° (WNW) 12:43:47 437.505
SWISSCUBE 08 Feb 12:42:45 12:45:13 14° 90° (E) 12:47:40 437.505
Oscar 19 08 Feb 12:45:06 12:50:13 60° 259° (W) 12:55:21 437.125/150
ESTCUBE 1 08 Feb 12:57:48 12:59:39 12° 300° (WNW) 13:01:30 437.505/2401.250
Gurwin Techsat 1B 08 Feb 13:01:47 13:07:04 76° 74° (ENE) 13:12:24 435.225
UKube-1 08 Feb 13:05:55 13:07:21 11° 300° (WNW) 13:08:45 .
CUSAT 1 08 Feb 13:07:16 13:13:22 55° 267° (W) 13:17:57 437.405
CUBEBUG 1 08 Feb 13:08:03 13:09:38 12° 300° (WNW) 13:11:12 437.445
SPROUT 08 Feb 13:16:39 13:19:54 22° 294° (WNW) 13:23:09 437.525
AO-85 08 Feb 13:17:07 13:19:43 13° 333° (NNW) 13:22:19 145.980
ITUPSAT 1 08 Feb 13:17:21 13:21:28 27° 95° (E) 13:25:33 437.325
SO-50 08 Feb 13:23:03 13:27:50 55° 51° (NE) 13:32:25 436.795
DANDE 08 Feb 13:25:10 13:32:35 74° 264° (W) 13:38:13 436.750
BEESAT 08 Feb 13:26:49 13:31:11 34° 97° (E) 13:35:32 436.000
AO-7 08 Feb 13:27:54 13:35:23 38° 58° (ENE) 13:42:53 29.400- 29.500
JAS-2 08 Feb 13:29:07 13:36:30 47° 262° (W) 13:43:21 435.910
TISAT 1 08 Feb 13:31:50 13:35:40 36° 290° (WNW) 13:39:28 437.305
M-CUBED/EXP-1 PRIME 08 Feb 13:42:26 13:44:27 14° 61° (ENE) 13:46:25 437.505
ITAMSAT 1 08 Feb 13:49:58 13:55:09 74° 257° (WSW) 14:00:22 435.822/435.867
PCSat 08 Feb 13:52:40 13:52:51 10° 332° (NNW) 13:53:02 145.827
AUBIESAT-1 08 Feb 13:53:33 13:55:46 16° 61° (ENE) 13:57:56 437.475
SWISSCUBE 08 Feb 14:18:43 14:23:29 68° 287° (WNW) 14:28:15 437.505
YUBILEINY 08 Feb 14:22:18 14:31:13 86° 82° (E) 14:40:03 435.215
HORYU 2 08 Feb 14:24:30 14:27:52 22° 65° (ENE) 14:31:14 437.375
Cosmos 2491 08 Feb 14:28:19 14:36:31 48° 88° (E) 14:44:43 435.465 / 435.565
RS-15 08 Feb 14:44:41 14:54:39 32° 336° (NNW) 15:05:05 29.354- 29.394
Gurwin Techsat 1B 08 Feb 14:44:47 14:47:36 14° 271° (W) 14:50:25 435.225
ITUPSAT 1 08 Feb 14:54:59 14:59:20 35° 292° (WNW) 15:03:40 437.325
SO-50 08 Feb 15:04:27 15:07:54 20° 250° (WSW) 15:11:16 436.795
Cosmos 2504 08 Feb 15:04:30 15:12:32 39° 70° (ENE) 15:20:04 435.465 / 435.565
BEESAT 08 Feb 15:04:47 15:08:51 28° 294° (WNW) 15:12:54 436.000
DANDE 08 Feb 15:11:27 15:13:43 12° 287° (WNW) 15:15:50 436.750
MOZHAYETS 4 08 Feb 15:15:19 15:19:14 26° 95° (E) 15:23:08
M-CUBED/EXP-1 PRIME 08 Feb 15:15:21 15:18:52 40° 255° (WSW) 15:22:12 437.505
AO-7 08 Feb 15:19:44 15:27:52 55° 258° (WSW) 15:36:05 29.400- 29.500
STARS 08 Feb 15:21:02 15:25:09 39° 98° (E) 15:29:14 437.465
AUBIESAT-1 08 Feb 15:26:44 15:30:09 36° 256° (WSW) 15:33:24 437.475
Cubesat XI-IV 08 Feb 15:32:51 15:34:40 12° 55° (NE) 15:36:28 437.490
KKS-1 08 Feb 15:33:30 15:37:57 83° 285° (WNW) 15:42:23 437.445
ISS 08 Feb 15:37:10 15:39:53 25° 136° (SE) 15:42:36 145.825
HORYU 2 08 Feb 16:00:05 16:04:12 38° 262° (W) 16:08:22 437.375
